Effective Sunday, March 17, 2024, the National Weather Service National Data Buoy Center will discontinue its Dial-A-Buoy Interactive Voice Response system. For more information, see Service Change Notice 24-06 (PDF).

Station PBPA2 - Point Bishop, AK Image indicating link to RSS feed of recent meteorological observations for station PBPA2


Conditions at PBPA2 as of
(10:10 am AKST)
1910 GMT on 02/23/2024:
     

Click on the graph icon in the table below to see a time series plot of the last five days of that observation.

5-day plot - Wind Direction Wind Direction (WDIR):SSW ( 200 deg true )
5-day plot - Wind Speed Wind Speed (WSPD): 2.9 kts
5-day plot - Wind Gust Wind Gust (GST): 8.0 kts
5-day plot - Atmospheric Pressure Atmospheric Pressure (PRES):29.96 in
5-day plot - Air Temperature Air Temperature (ATMP): 37.2 °F
5-day plot - Dew Point Dew Point (DEWP): 29.5 °F
5-day plot - Wind Chill Wind Chill (CHILL): 34.9 °F
5-day plot - Wind Speed at 10 Meters Wind Speed at 10 meters (WSPD10M): 3.9 kts
5-day plot - Wind Speed at 20 Meters Wind Speed at 20 meters (WSPD20M): 3.9 kts
5-day plot -  Wind Speed, Wind Gust and Atmospheric Pressure Combined plot of Wind Speed, Gust, and Air Pressure
Previous observations
TIME
(AKST)
5-day plot - Wind Direction
WDIR
 
5-day plot - Wind Speed
WSPD
kts
5-day plot - Wind Gust
GST
kts
5-day plot - Wave Height
WVHT
ft
5-day plot - Dominant Wave Period
DPD
sec
5-day plot - Average Wave Period
APD
sec
5-day plot - Mean Wave Direction
MWD
 
5-day plot - Atmospheric Pressure
PRES
in
5-day plot - Pressure Tendency
PTDY
in
5-day plot - Air Temperature
ATMP
°F
5-day plot - Water Temperature
WTMP
°F
5-day plot - Dew Point
DEWP
°F
5-day plot - Salinity
SAL
psu
5-day plot - Visibility
VIS
nmi
5-day plot - Tide (above MLLW)
TIDE
ft
2024-02-23 09:10 am S 5.1 12.0----29.93- 37.2- 28.4---
2024-02-23 08:10 amSSW 2.9 11.1----29.91- 35.8- 31.8---
2024-02-23 07:10 am- 0.0 1.9----29.89- 35.1- 30.6---
2024-02-23 06:10 am S 2.9 8.9----29.87- 34.7- 32.5---
2024-02-23 05:10 am SW 1.9 8.0----29.84- 36.0- 33.4---
2024-02-23 04:10 amSSW 1.9 12.0----29.84- 37.6- 35.2---
2024-02-23 03:10 am- 0.0 6.0----29.87- 37.2- 35.1---
2024-02-23 02:10 amSSW 1.9 8.9----29.88- 36.9- 34.7---
2024-02-23 01:10 amSSW 1.9 8.9----29.89- 37.0- 34.7---
2024-02-23 12:10 am- 0.0 1.9----29.90- 37.6- 34.3---
2024-02-22 11:10 pm S 5.1 13.0----29.89- 39.2- 34.3---
2024-02-22 10:10 pm S 1.9 12.0----29.90- 38.7- 34.9---
2024-02-22 09:10 pm S 6.0 19.0----29.88- 38.3- 34.9---
2024-02-22 08:10 pm S 6.0 18.1----29.88- 38.5- 34.7---
2024-02-22 07:10 pmSSW 7.0 25.1----29.87- 38.1- 34.5---
2024-02-22 06:10 pmSSW 5.1 24.1----29.90- 38.5- 34.9---
2024-02-22 05:10 pmSSW 6.0 22.9----29.91- 38.8- 35.1---
2024-02-22 04:10 pm S 8.9 26.0----29.93- 39.2- 34.7---
2024-02-22 03:10 pm S 7.0 26.0----29.97- 39.0- 35.2---
2024-02-22 02:10 pmSSW 6.0 24.1----30.00- 39.7- 34.9---
2024-02-22 01:10 pm S 7.0 24.1----30.02- 40.1- 34.5---
2024-02-22 12:10 pm S 7.0 22.0----30.06- 40.3- 34.7---
2024-02-22 11:10 am S 12.0 24.1----30.06- 40.6- 34.3---
2024-02-22 10:10 am S 12.0 28.0----30.07- 41.0- 33.4---